[[{"header":{"parameterUnit":"m.s-1","parameterCategory":1,"la1":30.2991,"la2":30.254,"lo1":-89.0895,"lo2":-89.0444,"dy":0.0017,"dx":0.0017,"nx":28,"ny":28,"refTime":"2024-08-21T09:00:00:Z","depth":0,"parameterNumber":2,"parameterNumberName":"U-component_of_WINDS"},"data":[0,0,0,0,0,0,0,0,0,0,0,0,0,0,0,0,0,0,0,0,0,0,0,0,0,0,0,0,0,0,0,0,0,0,0,0,0,0,0,0,0,0,0,0,0,0,0,0,0,0,0,0,0,0,0,0,0,0,-1.1667,-1.1667,0,-1.1689,-1.1689,-1.169,-1.1648,-1.1646,-1.1645,-1.1644,-1.1667,-1.1669,-1.1671,0,0,0,0,0,0,0,0,0,0,0,0,0,-1.1588,-1.159,-1.1667,-1.1667,-1.1668,-1.1689,-1.1689,-1.169,-1.1648,-1.1646,-1.1645,-1.1643,-1.1666,-1.1669,-1.1671,0,0,0,0,0,0,0,0,0,0,0,0,0,-1.1618,-1.159,-1.1667,-1.1649,-1.1648,-1.1689,-1.169,-1.169,-1.1648,-1.1646,-1.1644,-1.1642,-1.1666,-1.1668,-1.1671,-1.1731,0,0,-1.168,-1.1681,0,0,0,0,0,0,0,0,-1.1616,-1.1621,-1.1652,-1.1651,-1.1649,-1.1664,-1.167,-1.1704,-1.1649,-1.1648,-1.1644,-1.1641,-1.1668,-1.167,-1.1679,-1.1732,-1.1733,-1.168,-1.1682,-1.1683,-1.1684,0,0,0,0,0,0,0,-1.1614,-1.1619,-1.1676,-1.1652,-1.1651,-1.164,-1.1642,-1.1676,-1.1669,-1.1648,-1.1645,-1.1648,-1.1667,-1.1676,-1.1679,-1.1733,-1.168,-1.1683,-1.1685,-1.1686,-1.1835,-1.1837,0,0,0,0,0,0,-1.1614,-1.1618,-1.1675,-1.1677,-1.1627,-1.1643,-1.1645,-1.1661,-1.1669,-1.1668,-1.165,-1.1646,-1.1672,-1.1676,-1.168,-1.175,-1.1683,-1.1686,-1.1688,-1.1833,-1.1836,-1.1838,0,0,0,0,0,0,-1.1613,-1.162,-1.1674,-1.1646,-1.1653,-1.1647,-1.1665,-1.1663,-1.1672,-1.167,-1.1669,-1.1661,-1.1671,-1.1676,-1.1718,-1.175,-1.1687,-1.169,-1.183,-1.1834,-1.1837,-1.189,0,0,0,0,0,0,-1.1611,-1.1619,-1.1642,-1.1647,-1.1654,-1.1713,-1.1667,-1.1665,-1.1677,-1.1673,-1.1681,-1.168,-1.167,-1.1714,-1.1721,-1.1753,-1.1692,-1.1827,-1.1832,-1.1836,-1.1886,-1.1895,-1.1903,0,0,0,0,0,-1.1608,-1.1657,-1.1644,-1.1651,-1.1683,-1.1715,-1.1719,-1.1706,-1.168,-1.1703,-1.1701,-1.168,-1.1745,-1.1719,-1.1726,-1.1759,-1.1825,-1.183,-1.1835,-1.1882,-1.1893,-1.1903,0,0,0,0,0,0,-1.1657,-1.1657,-1.1643,-1.1695,-1.1705,-1.1707,-1.1736,-1.1718,-1.1736,-1.1731,-1.1714,-1.1716,-1.1762,-1.1765,-1.1735,-1.1817,-1.1781,-1.1788,-1.1814,-1.1824,-1.1833,-1.1832,-1.1695,0,0,0,0,0,-1.1674,-1.1699,-1.1698,-1.1744,-1.175,-1.1742,-1.1756,-1.1744,-1.1754,-1.1759,-1.176,-1.1771,-1.1793,-1.1809,-1.183,-1.1885,-1.1886,-1.1911,-1.192,-1.1927,-1.1934,-1.1962,-1.1974,-1.1854,-1.1854,-1.1854,0,0,-1.1709,-1.1712,-1.173,-1.1754,-1.1761,-1.1788,-1.1746,-1.1777,-1.1796,-1.1763,-1.1803,-1.1805,-1.1815,-1.1864,-1.1886,-1.1868,-1.1966,-1.1934,-1.1939,-1.1942,-1.1969,-1.198,-1.199,-1.1858,-1.1857,-1.1857,0,0,-1.1787,-1.1792,-1.183,-1.1837,-1.1847,-1.1841,-1.185,-1.1855,-1.1855,-1.1894,-1.187,-1.1892,-1.1932,-1.194,-1.195,-1.2029,-1.2009,-1.2036,-1.2082,-1.211,-1.2119,-1.2127,-1.2155,-1.2166,-1.2042,-1.2042,-1.2042,0,-1.183,-1.1869,-1.1853,-1.1884,-1.1896,-1.1866,-1.1904,-1.1912,-1.1928,-1.1937,-1.1916,-1.1964,-1.1969,-1.2019,-1.2038,-1.2047,-1.2057,-1.2035,-1.2119,-1.2127,-1.2135,-1.2161,-1.2172,-1.2045,-1.2045,-1.2044,-1.2044,0,-1.1921,-1.1948,-1.1978,-1.1994,-1.2008,-1.2044,-1.2032,-1.2049,-1.2036,-1.2032,-1.2072,-1.2076,-1.2097,-1.2108,-1.2096,-1.2156,-1.2145,-1.2122,-1.2086,-1.2149,-1.2174,-1.2184,-1.205,-1.2049,-1.2048,-1.2047,0,0,-1.2032,-1.2037,-1.2048,-1.2054,-1.2062,-1.2083,-1.2116,-1.2136,-1.215,-1.2162,-1.2189,-1.2222,-1.2201,-1.2211,-1.22,-1.2224,-1.2286,-1.2198,-1.2198,-1.2215,-1.2352,-1.2369,-1.2381,-1.2272,-1.2274,-1.2276,-1.2351,0,-1.211,-1.2167,-1.2152,-1.2208,-1.2233,-1.2204,-1.2233,-1.224,-1.2237,-1.2257,-1.2253,-1.2277,-1.2247,-1.2253,-1.2276,-1.2274,-1.2313,-1.2268,-1.2298,-1.2299,-1.2297,-1.2394,-1.2413,-1.2484,-1.236,-1.2362,-1.2363,0,-1.2208,-1.2223,-1.2282,-1.2283,-1.2293,-1.232,-1.2336,-1.2355,-1.2363,-1.2359,-1.2369,-1.2352,-1.2384,-1.2347,-1.2391,-1.236,-1.2371,-1.2372,-1.2374,-1.2377,-1.2336,-1.24,-1.2507,-1.2517,-1.2378,-1.2377,-1.2376,0,-1.2284,-1.2318,-1.2357,-1.2363,-1.2367,-1.2386,-1.2388,-1.2393,-1.2405,-1.2419,-1.2427,-1.2445,-1.2454,-1.2468,-1.2456,-1.243,-1.2502,-1.2463,-1.2499,-1.25,-1.2517,-1.2516,-1.2627,-1.2523,-1.2523,-1.2523,-1.2522,0,-1.2372,-1.241,-1.2391,-1.2415,-1.2456,-1.2438,-1.2478,-1.2477,-1.2482,-1.2505,-1.248,-1.2503,-1.2485,-1.2506,-1.2496,-1.2534,-1.2538,-1.2536,-1.2533,-1.2538,-1.2539,-1.2546,-1.2541,-1.2525,-1.2525,-1.2524,-1.2524,0,-1.2464,-1.2453,-1.2494,-1.2493,-1.2494,-1.2524,-1.2523,-1.2545,-1.2539,-1.2569,-1.2574,-1.2565,-1.2588,-1.2577,-1.2601,-1.2594,-1.2643,-1.2633,-1.2641,-1.2638,-1.2675,-1.2671,-1.2795,-1.281,-1.2696,-1.2697,-1.2698,0,-1.2522,-1.255,-1.2551,-1.2565,-1.2568,-1.2591,-1.2602,-1.2585,-1.2598,-1.2608,-1.2629,-1.2649,-1.2665,-1.2703,-1.2698,-1.2716,-1.2707,-1.2749,-1.271,-1.2714,-1.2708,-1.2707,-1.2709,-1.2757,-1.2759,-1.276,-1.2761,0,-1.2626,-1.2618,-1.2636,-1.2652,-1.2666,-1.2678,-1.2688,-1.27,-1.2683,-1.2699,-1.2721,-1.2733,-1.2757,-1.2778,-1.2793,-1.2795,-1.2775,-1.2772,-1.2782,-1.2788,-1.2791,-1.279,-1.2662,-1.277,-1.2769,-1.2769,-1.2768,-1.2768,-1.2702,-1.2725,-1.2729,-1.275,-1.2754,-1.2763,-1.2784,-1.278,-1.2798,-1.2816,-1.2804,-1.2831,-1.2836,-1.2854,-1.2858,-1.2879,-1.2862,-1.2876,-1.2879,-1.2883,-1.2888,-1.2787,-1.2881,-1.2881,-1.2881,-1.2881,-1.288,0,-1.2805,-1.2805,-1.2824,-1.2837,-1.2853,-1.2831,-1.284,-1.2855,-1.2879,-1.2885,-1.29,-1.2925,-1.2945,-1.2941,-1.2958,-1.2975,-1.2966,-1.298,-1.2979,-1.298,-1.2902,-1.2892,-1.2987,-1.2987,-1.2987,-1.2987,-1.2987,-1.2987,-1.286,-1.2897,-1.289,-1.2929,-1.2929,-1.2954,-1.2961,-1.2969,-1.2974,-1.3003,-1.3018,-1.3015,-1.3017,-1.3034,-1.3051,-1.3049,-1.3057,-1.3074,-1.3069,-1.2996,-1.2986,-1.2976,-1.2967,-1.3076,-1.3076,-1.3146,-1.3147,-1.3147]},{"header":{"parameterUnit":"m.s-1","parameterCategory":1,"la1":30.2991,"la2":30.254,"lo1":-89.0895,"lo2":-89.0444,"dy":0.0017,"dx":0.0017,"nx":28,"ny":28,"refTime":"2024-08-21T09:00:00:Z","depth":0,"parameterNumber":3,"parameterNumberName":"V-component_of_WINDS"},"data":[0,0,0,0,0,0,0,0,0,0,0,0,0,0,0,0,0,0,0,0,0,0,0,0,0,0,0,0,0,0,0,0,0,0,0,0,0,0,0,0,0,0,0,0,0,0,0,0,0,0,0,0,0,0,0,0,0,0,-3.6848,-3.6849,0,-3.6936,-3.6937,-3.6938,-3.6909,-3.6907,-3.6905,-3.6903,-3.6987,-3.6991,-3.6995,0,0,0,0,0,0,0,0,0,0,0,0,0,-3.665,-3.6654,-3.6848,-3.6849,-3.6851,-3.6936,-3.6937,-3.6938,-3.6909,-3.6907,-3.6904,-3.6902,-3.6986,-3.699,-3.6995,0,0,0,0,0,0,0,0,0,0,0,0,0,-3.6736,-3.6655,-3.6848,-3.6846,-3.6847,-3.6936,-3.6937,-3.6939,-3.691,-3.6907,-3.6904,-3.6901,-3.6984,-3.699,-3.6996,-3.709,0,0,-3.7014,-3.7017,0,0,0,0,0,0,0,0,-3.6732,-3.6744,-3.6846,-3.6847,-3.6848,-3.6909,-3.6898,-3.6989,-3.691,-3.6886,-3.6903,-3.69,-3.6963,-3.697,-3.6993,-3.7093,-3.7097,-3.7015,-3.7018,-3.7021,-3.7023,0,0,0,0,0,0,0,-3.6726,-3.674,-3.6883,-3.6847,-3.6848,-3.6839,-3.6848,-3.6915,-3.6939,-3.6888,-3.6886,-3.6897,-3.6963,-3.6987,-3.6995,-3.7098,-3.7015,-3.702,-3.7024,-3.7026,-3.7279,-3.7282,0,0,0,0,0,0,-3.672,-3.6735,-3.688,-3.6885,-3.6782,-3.6845,-3.6855,-3.6892,-3.6938,-3.6943,-3.6899,-3.6895,-3.6978,-3.6988,-3.6997,-3.7109,-3.7021,-3.7026,-3.703,-3.7275,-3.7279,-3.7283,0,0,0,0,0,0,-3.6716,-3.6733,-3.6876,-3.681,-3.6827,-3.6852,-3.6893,-3.6895,-3.6919,-3.6947,-3.695,-3.692,-3.6976,-3.6989,-3.7067,-3.7112,-3.7029,-3.7035,-3.7272,-3.7277,-3.7281,-3.7334,0,0,0,0,0,0,-3.671,-3.6732,-3.6769,-3.6811,-3.6831,-3.6947,-3.6896,-3.6899,-3.6931,-3.6926,-3.6967,-3.6971,-3.6975,-3.7058,-3.7073,-3.7118,-3.7039,-3.7268,-3.7274,-3.7279,-3.7328,-3.734,-3.735,0,0,0,0,0,-3.6703,-3.6779,-3.6771,-3.6789,-3.6879,-3.6949,-3.696,-3.6965,-3.6934,-3.6971,-3.6988,-3.697,-3.7105,-3.7066,-3.7083,-3.7131,-3.7265,-3.7272,-3.7279,-3.7323,-3.7338,-3.7349,0,0,0,0,0,0,-3.674,-3.6785,-3.6776,-3.6869,-3.6906,-3.6944,-3.699,-3.698,-3.7025,-3.7018,-3.702,-3.703,-3.711,-3.7128,-3.7085,-3.7223,-3.718,-3.7191,-3.7208,-3.7222,-3.7232,-3.7225,-3.7044,0,0,0,0,0,-3.6759,-3.6815,-3.685,-3.6928,-3.6948,-3.6966,-3.6997,-3.6997,-3.7035,-3.705,-3.7073,-3.7108,-3.7158,-3.7191,-3.7239,-3.7331,-3.7339,-3.7372,-3.7383,-3.7391,-3.74,-3.7449,-3.7463,-3.7306,-3.7306,-3.7305,0,0,-3.6799,-3.683,-3.6865,-3.6937,-3.6965,-3.7021,-3.6979,-3.704,-3.708,-3.7058,-3.7133,-3.7152,-3.7191,-3.7277,-3.7315,-3.7294,-3.7445,-3.74,-3.7407,-3.7411,-3.7457,-3.7472,-3.7485,-3.731,-3.731,-3.7309,0,0,-3.6899,-3.6929,-3.6997,-3.7027,-3.7072,-3.7084,-3.71,-3.7141,-3.7153,-3.7229,-3.7213,-3.726,-3.7347,-3.7376,-3.7401,-3.7513,-3.7497,-3.7528,-3.7584,-3.7631,-3.7643,-3.7654,-3.7692,-3.7706,-3.7537,-3.7537,-3.7537,0,-3.6942,-3.7027,-3.7033,-3.7095,-3.7126,-3.7111,-3.7179,-3.7207,-3.7264,-3.7285,-3.7261,-3.737,-3.7395,-3.7486,-3.7513,-3.7536,-3.7552,-3.7523,-3.7641,-3.7653,-3.7663,-3.7699,-3.7714,-3.754,-3.754,-3.754,-3.7539,0,-3.7077,-3.7136,-3.7185,-3.7243,-3.728,-3.7344,-3.7358,-3.7394,-3.7392,-3.7405,-3.7482,-3.7512,-3.7565,-3.7587,-3.7585,-3.7678,-3.7663,-3.7641,-3.7597,-3.7681,-3.7715,-3.7729,-3.7545,-3.7544,-3.7543,-3.7542,0,0,-3.7202,-3.7263,-3.728,-3.7306,-3.7354,-3.7399,-3.7462,-3.7516,-3.7546,-3.7586,-3.7638,-3.7712,-3.7691,-3.7721,-3.7721,-3.7763,-3.7847,-3.7735,-3.7736,-3.7753,-3.795,-3.7965,-3.7982,-3.7838,-3.784,-3.7843,-3.7946,0,-3.7305,-3.7418,-3.7425,-3.7527,-3.758,-3.7567,-3.7621,-3.7656,-3.767,-3.7716,-3.7731,-3.7783,-3.7753,-3.7771,-3.7812,-3.7828,-3.7886,-3.7821,-3.7883,-3.7886,-3.7873,-3.8,-3.8016,-3.8112,-3.7959,-3.7962,-3.7963,0,-3.744,-3.7486,-3.7594,-3.7634,-3.7657,-3.7706,-3.7755,-3.7801,-3.7838,-3.7846,-3.7879,-3.7874,-3.7936,-3.7892,-3.7977,-3.7932,-3.7958,-3.797,-3.7974,-3.7979,-3.7928,-3.8006,-3.8143,-3.8157,-3.7985,-3.7983,-3.7981,0,-3.7518,-3.7607,-3.7683,-3.7705,-3.7754,-3.7789,-3.7811,-3.7847,-3.7878,-3.7921,-3.7941,-3.799,-3.8016,-3.8054,-3.806,-3.8028,-3.8145,-3.8102,-3.8151,-3.8151,-3.8175,-3.8173,-3.8317,-3.8195,-3.8194,-3.8194,-3.8194,0,-3.7632,-3.7698,-3.7719,-3.7765,-3.7838,-3.7845,-3.7916,-3.7935,-3.7967,-3.8015,-3.8005,-3.805,-3.8058,-3.8104,-3.811,-3.8178,-3.819,-3.8196,-3.8197,-3.8197,-3.8196,-3.8212,-3.8205,-3.8198,-3.8197,-3.8196,-3.8196,0,-3.7731,-3.7748,-3.7829,-3.787,-3.7882,-3.7933,-3.7967,-3.801,-3.8024,-3.8085,-3.8099,-3.812,-3.8174,-3.8185,-3.8249,-3.8252,-3.8333,-3.8328,-3.8321,-3.832,-3.8368,-3.8363,-3.8526,-3.8547,-3.8413,-3.8414,-3.8415,0,-3.7802,-3.7852,-3.7899,-3.7931,-3.7955,-3.8008,-3.8041,-3.8049,-3.8083,-3.8131,-3.8168,-3.8221,-3.8264,-3.835,-3.8369,-3.8417,-3.8412,-3.8466,-3.8419,-3.8416,-3.841,-3.8407,-3.8411,-3.8474,-3.8476,-3.8477,-3.8478,0,-3.7924,-3.7931,-3.7979,-3.8031,-3.8071,-3.8112,-3.815,-3.8177,-3.819,-3.8229,-3.8285,-3.8318,-3.8384,-3.8436,-3.8484,-3.8504,-3.8492,-3.8493,-3.8506,-3.8506,-3.8499,-3.8502,-3.8344,-3.8488,-3.8487,-3.8487,-3.8486,-3.8486,-3.801,-3.8054,-3.8094,-3.8148,-3.8179,-3.8215,-3.8258,-3.8278,-3.8325,-3.838,-3.8382,-3.8442,-3.8478,-3.8542,-3.8565,-3.8611,-3.8594,-3.8614,-3.8618,-3.8623,-3.8627,-3.8493,-3.862,-3.8619,-3.8619,-3.8619,-3.8619,0,-3.8131,-3.8156,-3.8207,-3.8262,-3.8304,-3.8293,-3.8335,-3.837,-3.8424,-3.8459,-3.8502,-3.8566,-3.8616,-3.864,-3.869,-3.8722,-3.8718,-3.8734,-3.8731,-3.8735,-3.864,-3.8623,-3.8737,-3.8737,-3.8737,-3.8737,-3.8737,-3.8737,-3.8199,-3.8273,-3.8283,-3.8371,-3.8395,-3.8456,-3.8481,-3.8513,-3.8542,-3.8614,-3.8656,-3.8673,-3.8703,-3.8754,-3.88,-3.8805,-3.8823,-3.8842,-3.8844,-3.8754,-3.8742,-3.8731,-3.8714,-3.8846,-3.8846,-3.8936,-3.8937,-3.8937]}]]